Вернуться в каталог

CZ-6A DEB

АктивенPO
NORAD 56651·DEBRIS·🇨🇳 China

Запущен Nov 11, 2022 с Taiyuan Satellite Launch Center

Loading…

Ближайшие Пролёты (ближайшие 24 часа)

TLE

СвежийSource: Space-Track

Эпоха: Sep 14, 2026, 16:10 UTC

1 56651U 22151AGB 26257.67417592  .00009581  00000-0  13399-2 0  9997
2 56651  98.6059 329.1973 0058334 348.5894  11.3988 14.76645576188996

Отслеживайте CZ-6A DEB в реальном времени с AllMySat

Download on the App Store